Hourly Data Report for January 28, 2004

SHERBROOKE A
QUEBEC

45°26'00.000" N
71°41'00.000" W
241.40 m
7028124
71610
YSC

Download Data

Hourly Data (January 2004)
Hourly Data Report for January 28, 2004
TIME
LST
Temp Definition
°C
Dew Point Definition
°C
Rel Hum Definition
%
Precip. Amount Definition
mm

Wind Dir Definition
10's deg

Wind Spd Definition
km/h
Visibility Definition
km
Stn Press Definition
kPa
Hmdx Definition


Wind Chill Definition


Weather Definition


00:00 -23.2 -28.4 62   8 9 15.0 97.60   -31  
01:00 -22.1 -27.5 62   8 11 15.0 97.50   -30  
02:00 -23.9 -29.2 62   5 6 15.0 97.47   -30  
03:00 -23.6 -28.7 63     0 15.0 97.41      
04:00 -25.8 -31.3 60   12 6 15.0 97.37   -32  
05:00 -25.1 -31.1 57   8 7 15.0 97.28   -32  
06:00 -24.6 -30.0 61   9 9 15.0 97.17   -32  
07:00 -24.6 -30.0 61   11 4 15.0 97.16   -29  
08:00 -25.4 -30.6 62   36 4 24.1 97.14   -29 Mainly Clear
09:00 -23.0 -28.4 61   12 4 24.1 97.15   -27 Mostly Cloudy
10:00 -19.5 -27.1 51     0 24.1 97.14     Mostly Cloudy
11:00 -16.2 -24.8 47     0 24.1 97.10     Mostly Cloudy
12:00 -13.6 -23.6 43     0 24.1 97.00     Mostly Cloudy
13:00 -12.8 -22.9 43   28 6 24.1 96.94   -17 Mostly Cloudy
14:00 -11.6 -22.1 41   29 9 24.1 96.88   -17 Mostly Cloudy
15:00 -11.9 -22.3 42   28 11 24.1 96.89   -18 Mainly Clear
16:00 -13.7 -22.6 47   28 15 24.1 96.95   -21 Mostly Cloudy
17:00 -14.4 -23.0 48   28 19 24.1 97.04   -23 Mostly Cloudy
18:00 -14.8 -23.1 49   27 11 15.0 97.13   -21  
19:00 -14.8 -23.1 49   26 11 15.0 97.17   -21  
20:00 -14.4 -20.8 58   26 9 15.0 97.19   -20  
21:00 -14.2 -19.7 63   19 6 9.7 97.16   -18  
22:00 -13.5 -18.2 68   20 6 11.3 97.11   -18  
23:00 -12.0 -15.9 73   25 7 8.0 97.08   -16 Snow

Notes on Data Quality.

Legend

  • E = Estimated
  • M = Missing
  • NA = Not Available*
  • [empty] = Indicates an unobserved value
Date modified: